Skip Page Navigation
NASA JPL Caltech
NASA Logo - Jet Propulsion Laboratory + View the NASA Portal
+ Center for Near-Earth Object Studies
JPL Home Earth Solar System Stars & Galaxies Technology
JPL Solar System Dynamics
BODIES ORBITS EPHEMERIDES TOOLS PHYSICAL DATA DISCOVERY FAQ SITE MAP
JPL Small-Body Database Browser
Search: [ help ]  
266223 (2006 WJ200)
Classification: Main-belt Asteroid          SPK-ID: 2266223
Ephemeris | Orbit Diagram | Orbital Elements | Mission Design | Physical Parameters | Discovery Circumstances ]

[ hide orbit diagram ]

For accurate long-term ephemerides, please instead use our Horizons system.This orbit viewer was implemented using two-body methods, and hence should not be used for determining accurate long-term trajectories (over several years or decades) or planetary encounter circumstances.


Orbital Elements at Epoch 2459000.5 (2020-May-31.0) TDB
Reference: JPL 14 (heliocentric ecliptic J2000)
 Element Value Uncertainty (1-sigma)   Units 
e .09346619496363559 5.4109e-08  
a 2.319068885320939 1.7008e-08 au
q 2.102314340751431 1.2035e-07 au
i 3.400377001299082 5.9612e-06 deg
node 245.3673875986177 7.9893e-05 deg
peri 319.1360055837695 8.5057e-05 deg
M 172.1841951887425 3.0836e-05 deg
tp 2458383.536197323139
(2018-Sep-22.03619732)
0.00010729 TDB
period 1289.938189275757
3.53
1.4191e-05
3.885e-08
d
yr
n .2790831397914686 3.0703e-09 deg/d
Q 2.535823429890447 1.8598e-08 au
  Orbit Determination Parameters
   # obs. used (total)      199  
   data-arc span      7625 days (20.88 yr)  
   first obs. used      1999-12-27  
   last obs. used      2020-11-11  
   planetary ephem.      DE431  
   SB-pert. ephem.      SB431-N16  
   condition code      0  
   norm. resid. RMS      .61191  
   source      ORB  
   producer      Otto Matic  
   solution date      2020-Dec-18 05:54:11  

Additional Information
 Earth MOID = 1.09934 au 
 Jupiter MOID = 2.43223 au 
 T_jup = 3.571 
[ show covariance matrix ]

Ephemeris | Orbit Diagram | Orbital Elements | Mission Design | Physical Parameters | Discovery Circumstances ]

Physical Parameter Table
Parameter Symbol Value Units Sigma Reference Notes
absolute magnitude H 17.4   n/a MPO437226  

266223 (2006 WJ200)          Discovered 2006-Nov-19 by Spacewatch at Kitt Peak
Reference: 20110218/Numbers.arcLast Updated: 2011-02-22
Ephemeris | Orbit Diagram | Orbital Elements | Mission Design | Physical Parameters | Discovery Circumstances ]
ABOUT SSD CREDITS/AWARDS PRIVACY/COPYRIGHT GLOSSARY LINKS
FirstGov 2021-Jan-19 03:05 UT
(server date/time)  
NASA Home Page
Site Manager:   Ryan S. Park
Webmaster  Alan B. Chamberlin